Weather History for KDFI - April, 2014

Change the Weather History Date:

Wednesday, April 23, 2014

  Actual Average Record
Temperature  
Mean Temperature 46 °F -  
Max Temperature 60 °F 62 °F 89 °F (1985)
Min Temperature 34 °F 40 °F 25 °F (1936)
Degree Days  
Heating Degree Days 18    
Moisture  
Dew Point 27 °F    
Average Humidity 49    
Maximum Humidity 75    
Minimum Humidity 25    
Precipitation  
Precipitation 0.00 in - - ()
Sea Level Pressure  
Sea Level Pressure 30.08 in    
Wind  
Wind Speed 8 mph (North)    
Max Wind Speed 12 mph    
Max Gust Speed 18 mph    
Visibility 10 miles    
Events      
Averages and records for this station are not official NWS values.
T = Trace of Precipitation, MM = Missing Value Source: NWS Daily Summary

Daily Weather History Graph

Daily Weather History Graph

Search for Another Location

Airport or City:

Trip Planner

Search our weather history database for the weather conditions in past years. The results will help you decide how hot, cold, wet, or windy it might be!

Date:

Astronomy

Apr. 23, 2014 Rise Set
Actual Time 6:46 AM EDT 8:26 PM EDT
Civil Twilight 6:16 AM EDT 8:55 PM EDT
Nautical Twilight 5:41 AM EDT 9:31 PM EDT
Astronomical Twilight 5:03 AM EDT 10:09 PM EDT
Moon 3:21 AM EDT (4/23) 2:30 PM EDT (4/23)
Length of Visible Light 14h 39m
Length of Day
13h 40m
Waning Crescent, 35% of the Moon is Illuminated
Apr 23
Waning Crescent
Apr 29
New
May 6
First Quarter
May 14
Full
May 21
Last Quarter

Hourly Weather History & Observations

Time (EDT) Temp. Windchill Dew Point Humidity Pressure Visibility Wind Dir Wind Speed Gust Speed Precip Events Conditions
12:53 AM 39.9 °F 33.9 °F 28.9 °F 65% 29.99 in 10.0 mi NW 9.2 mph - N/A   Clear
1:53 AM 39.0 °F 32.8 °F 28.0 °F 65% 30.00 in 10.0 mi NNW 9.2 mph - N/A   Clear
2:53 AM 37.9 °F 31.5 °F 27.0 °F 65% 30.00 in 10.0 mi NNW 9.2 mph - N/A   Clear
3:53 AM 37.9 °F 30.5 °F 27.0 °F 65% 30.01 in 10.0 mi NNW 11.5 mph - N/A   Clear
4:53 AM 37.0 °F 30.4 °F 27.0 °F 67% 30.03 in 10.0 mi NNW 9.2 mph - N/A   Clear
5:53 AM 35.1 °F 28.6 °F 27.0 °F 72% 30.06 in 10.0 mi North 8.1 mph - N/A   Clear
6:53 AM 34.0 °F 27.2 °F 27.0 °F 75% 30.08 in 10.0 mi North 8.1 mph - N/A   Clear
7:53 AM 37.0 °F 31.6 °F 28.0 °F 70% 30.09 in 10.0 mi North 6.9 mph - N/A   Clear
8:53 AM 39.9 °F 33.9 °F 28.9 °F 65% 30.11 in 10.0 mi NNW 9.2 mph - N/A   Partly Cloudy
9:53 AM 43.0 °F 37.7 °F 28.9 °F 58% 30.12 in 10.0 mi North 9.2 mph - N/A   Clear
10:53 AM 45.0 °F 41.2 °F 30.0 °F 56% 30.13 in 10.0 mi NNW 6.9 mph 18.4 mph N/A   Clear
11:53 AM 48.0 °F - 30.0 °F 50% 30.13 in 10.0 mi North 8.1 mph - N/A   Clear
12:53 PM 52.0 °F - 30.0 °F 43% 30.12 in 10.0 mi NNW 9.2 mph - N/A   Partly Cloudy
1:53 PM 54.0 °F - 28.9 °F 38% 30.10 in 10.0 mi NNE 9.2 mph - N/A   Clear
2:53 PM 55.9 °F - 28.9 °F 36% 30.11 in 10.0 mi Variable 4.6 mph - N/A   Clear
3:53 PM 57.9 °F - 28.0 °F 32% 30.10 in 10.0 mi North 11.5 mph - N/A   Clear
4:53 PM 59.0 °F - 26.1 °F 28% 30.09 in 10.0 mi NE 10.4 mph - N/A   Clear
5:53 PM 59.0 °F - 24.1 °F 26% 30.08 in 10.0 mi North 9.2 mph - N/A   Clear
6:53 PM 57.9 °F - 21.9 °F 25% 30.08 in 10.0 mi NE 4.6 mph - N/A   Clear
7:53 PM 55.0 °F - 23.0 °F 29% 30.09 in 10.0 mi North 4.6 mph - N/A   Clear
8:53 PM 53.1 °F - 21.0 °F 29% 30.10 in 10.0 mi Calm Calm - N/A   Clear
9:53 PM 52.0 °F - 24.1 °F 34% 30.12 in 10.0 mi Calm Calm - N/A   Clear
10:53 PM 51.1 °F - 24.1 °F 35% 30.12 in 10.0 mi ENE 3.5 mph - N/A   Clear
11:53 PM 50.0 °F - 28.9 °F 44% 30.12 in 10.0 mi East 4.6 mph - N/A   Clear